Regional Weather Roundup
Issued by NWS

Home | Current Version | Previous Version | Text Only | Print | Product List | Glossary Off
Versions: 1 2 3 4 5 6 7 8 9 10 11 12 13 14 15 16 17 18 19 20 21 22 23 24 25 26 27 28 29 30 31 32 33 34 35 36 37 38 39 40 41 42 43 44 45 46 47 48 49 50

419
ASUS43 KTOP 282259
RWRKS

WEATHER ROUNDUP FOR KANSAS
NATIONAL WEATHER SERVICE GOODLAND KS
600 PM CDT WED SEP 28 2016

NOTE:  "FAIR" INDICATES FEW OR NO CLOUDS BELOW 12,000 FEET WITH NO
SIGNIFICANT WEATHER AND/OR OBSTRUCTIONS TO VISIBILITY.

KSZ001>006-013>018-027>032-041>047-290000-
NORTHWEST KANSAS

CITY           SKY/WX    TMP DP  RH WIND       PRES   REMARKS
GOODLAND       SUNNY     82  41  23 NE9       30.24R
HAYS           SUNNY     75  37  25 NE14      30.21R
HILL CITY      SUNNY     76  44  32 NE9       30.23R
RUSSELL        SUNNY     72  37  28 NE13      30.20R
$$

KSZ061>065-074>080-084>089-290000-
SOUTHWEST KANSAS

CITY           SKY/WX    TMP DP  RH WIND       PRES   REMARKS
DODGE CITY     SUNNY     80  44  27 NE12      30.21R
ELKHART          N/A     87  40  19 NE9         N/A
GARDEN CITY    SUNNY     81  42  25 NE13      30.20R
GREAT BEND     SUNNY     73  36  25 NE15      30.20R
LIBERAL        SUNNY     84  41  21 E13       30.19R
$$

KSZ066>073-081>083-090>101-290000-
SOUTHEAST KANSAS

CITY           SKY/WX    TMP DP  RH WIND       PRES   REMARKS
CHANUTE        LGT RAIN  69  48  47 N9G20     30.14R
COFFEYVILLE    SUNNY     72  49  44 N15G22    30.12R
HUTCHINSON     SUNNY     73  47  39 N10G21    30.17R
MEDICINE LODGE   N/A     77  45  32 NE10      30.15R
NEWTON         SUNNY     68  48  48 N13       30.18R
PARSONS        SUNNY     71  48  43 N9        30.14R
WICHITA INTL   MOSUNNY   73  47  39 NE16      30.15R
WICHITA JABRA  LGT RAIN  70  48  45 N14G23    30.16R
WINFIELD       SUNNY     73  47  39 N14       30.15R
$$

KSZ007>012-019>026-033>040-048>060-102>105-290000-
NORTHEAST KANSAS

CITY           SKY/WX    TMP DP  RH WIND       PRES   REMARKS
CONCORDIA      SUNNY     70  43  37 NE13      30.21R
EMPORIA        SUNNY     67  46  47 N13       30.17R
LAWRENCE       SUNNY     67  47  48 N14       30.18R
MANHATTAN      SUNNY     69  45  41 NE13      30.19R
OLATHE IND     SUNNY     65  47  52 N13       30.18R
OLATHE EXE     SUNNY     64  46  52 NE13      30.17R
SALINA         SUNNY     72  45  37 N15       30.19R
TOPEKA BILLARD SUNNY     66  46  48 N12       30.18R
TOPEKA FORBES  SUNNY     68  46  45 NE12G20   30.18R
$$




USA.gov is the U.S. government's official web portal to all federal, state and local government web resources and services.